Location: Epalinges
(46.5518°N, 6.6683°E)
Time: 19:05:56
(UTC+00:00)

Cosmos 1408 Rocket - Pass Details

Date: 20 June 2021
Orbit: 600 x 632 km, 82.6° (Epoch: 01 August)

Event Time Altitude Azimuth Distance (km) Brightness Sun altitude
Exits shadow 03:00:38 - 197° (SSW) 2,537 6.2 -6.0°
Reaches altitude 10° 03:01:58 10° 199° (SSW) 2,003 5.6 -5.8°
Maximum altitude 03:06:22 63° 281° (W) 710 3.7 -5.3°
Drops below altitude 10° 03:10:50 10° 3° (N) 2,025 6.9 -4.7°
Sets 03:13:06 0° 7° (N) 2,938 7.9 -4.4°
